[[{"header":{"parameterUnit":"m.s-1","parameterCategory":1,"la1":30.2991,"la2":30.254,"lo1":-89.0895,"lo2":-89.0444,"dy":0.0017,"dx":0.0017,"nx":28,"ny":28,"refTime":"2025-01-23T09:00:00:Z","depth":0,"parameterNumber":2,"parameterNumberName":"U-component_of_WINDS"},"data":[0,0,0,0,0,0,0,0,0,0,0,0,0,0,0,0,0,0,0,0,0,0,0,0,0,0,0,0,0,0,0,0,0,0,0,0,0,0,0,0,0,0,0,0,0,0,0,0,0,0,0,0,0,0,0,0,0,0,1.4289,1.4288,0,1.4232,1.4231,1.423,1.4208,1.4208,1.4208,1.4209,1.4146,1.4144,1.4142,0,0,0,0,0,0,0,0,0,0,0,0,0,1.4376,1.4375,1.4289,1.4288,1.4288,1.4232,1.4231,1.423,1.4208,1.4208,1.4208,1.4209,1.4147,1.4144,1.4142,0,0,0,0,0,0,0,0,0,0,0,0,0,1.433,1.4374,1.4289,1.427,1.4268,1.4232,1.4231,1.423,1.4208,1.4208,1.4209,1.4209,1.4147,1.4145,1.4142,1.412,0,0,1.4134,1.4132,0,0,0,0,0,0,0,0,1.4333,1.4327,1.4274,1.4271,1.4269,1.4227,1.4238,1.4193,1.4208,1.4231,1.4209,1.4209,1.4173,1.4168,1.4156,1.4117,1.4114,1.4133,1.4132,1.413,1.413,0,0,0,0,0,0,0,1.4336,1.4329,1.4266,1.4273,1.427,1.4263,1.4257,1.423,1.4201,1.4229,1.4227,1.4221,1.4171,1.4159,1.4155,1.4113,1.4133,1.4131,1.4129,1.4128,1.4051,1.4051,0,0,0,0,0,0,1.4343,1.4332,1.4268,1.4264,1.4302,1.4261,1.4254,1.424,1.4201,1.4195,1.422,1.422,1.4164,1.4158,1.4152,1.4123,1.413,1.4128,1.4126,1.4052,1.4051,1.4051,0,0,0,0,0,0,1.4345,1.4337,1.427,1.4298,1.4289,1.4259,1.4244,1.4239,1.4227,1.4195,1.4189,1.4213,1.4164,1.4156,1.4128,1.4121,1.4127,1.4124,1.4052,1.4052,1.4051,1.4065,0,0,0,0,0,0,1.4348,1.4338,1.4331,1.4298,1.4287,1.4248,1.4243,1.4238,1.4222,1.4221,1.4187,1.4181,1.4163,1.4132,1.4125,1.4117,1.4122,1.4053,1.4052,1.4051,1.4065,1.4065,1.4065,0,0,0,0,0,1.4351,1.4336,1.433,1.4323,1.4277,1.4248,1.4242,1.4222,1.4222,1.4213,1.4193,1.4182,1.4123,1.413,1.4122,1.4112,1.4053,1.4052,1.4051,1.4065,1.4065,1.4065,0,0,0,0,0,0,1.4367,1.4331,1.4325,1.4299,1.4277,1.4244,1.4233,1.4223,1.4199,1.4199,1.4174,1.4167,1.414,1.4123,1.4132,1.4088,1.4087,1.4085,1.41,1.41,1.41,1.4104,1.412,0,0,0,0,0,1.4368,1.4349,1.4318,1.4298,1.4288,1.4262,1.4249,1.4236,1.4211,1.4201,1.4178,1.4154,1.4129,1.4114,1.409,1.4063,1.4054,1.4052,1.4052,1.4052,1.405,1.4033,1.4032,1.4048,1.4048,1.4048,0,0,1.437,1.4348,1.4336,1.4301,1.4282,1.4261,1.4254,1.4232,1.4216,1.4197,1.4169,1.4152,1.4123,1.4095,1.4082,1.408,1.4044,1.4051,1.4051,1.4049,1.4032,1.4031,1.403,1.4048,1.4048,1.4048,0,0,1.4361,1.4343,1.4324,1.4306,1.4278,1.4261,1.4257,1.4225,1.4213,1.4185,1.4171,1.415,1.4109,1.4089,1.4073,1.4057,1.4046,1.4049,1.4048,1.4033,1.4031,1.403,1.4023,1.4021,1.4047,1.4047,1.4047,0,1.4366,1.4335,1.4316,1.4295,1.4279,1.4262,1.4242,1.4225,1.419,1.4179,1.4178,1.4126,1.4105,1.4072,1.4068,1.4056,1.4049,1.4053,1.4033,1.4032,1.403,1.4023,1.4021,1.4048,1.4048,1.4048,1.4048,0,1.4341,1.432,1.4308,1.4276,1.4259,1.4238,1.4215,1.42,1.4189,1.4171,1.4142,1.4117,1.4087,1.4079,1.4067,1.4043,1.4043,1.4038,1.4036,1.403,1.4023,1.402,1.4049,1.4049,1.4048,1.4048,0,0,1.4341,1.4299,1.4295,1.428,1.4248,1.423,1.4208,1.418,1.4167,1.4144,1.4124,1.409,1.4085,1.4067,1.4053,1.4039,1.4026,1.4035,1.4034,1.4034,1.3998,1.4001,1.3998,1.4019,1.4019,1.4018,1.4,0,1.4328,1.429,1.4272,1.4241,1.422,1.4204,1.4185,1.4162,1.4146,1.4124,1.4106,1.4081,1.4077,1.4066,1.4052,1.4031,1.4019,1.4032,1.3999,1.3998,1.4006,1.3995,1.3998,1.3982,1.3997,1.3997,1.3996,0,1.4307,1.4284,1.4252,1.4222,1.4212,1.4196,1.4168,1.4148,1.4122,1.4111,1.4091,1.4077,1.4052,1.4053,1.4018,1.4028,1.4013,1.4001,1.4,1.3995,1.3996,1.3989,1.3976,1.3974,1.3992,1.3992,1.3993,0,1.4309,1.4271,1.4246,1.4233,1.4198,1.4186,1.4171,1.4145,1.4129,1.4104,1.4093,1.4066,1.4051,1.4029,1.4008,1.4011,1.3975,1.3974,1.3963,1.3964,1.3956,1.3956,1.394,1.3948,1.3948,1.3948,1.3948,0,1.4296,1.4276,1.4246,1.4231,1.4208,1.4187,1.4165,1.4148,1.4125,1.4105,1.4089,1.407,1.4044,1.4022,1.4005,1.3978,1.3971,1.396,1.3956,1.3961,1.3962,1.395,1.3951,1.3947,1.3948,1.3948,1.3948,0,1.4294,1.4273,1.4245,1.4214,1.4206,1.419,1.4162,1.4146,1.4129,1.4104,1.4097,1.4069,1.4042,1.4019,1.3983,1.3972,1.3943,1.3938,1.3952,1.395,1.394,1.3941,1.3915,1.3909,1.3923,1.3923,1.3922,0,1.4286,1.4271,1.4238,1.4224,1.4209,1.4187,1.417,1.4149,1.4133,1.4101,1.4088,1.4061,1.4037,1.3994,1.397,1.3942,1.3936,1.3929,1.3931,1.3937,1.3934,1.3935,1.3933,1.3928,1.3928,1.3928,1.3928,0,1.4274,1.4265,1.4243,1.4217,1.4198,1.4176,1.4154,1.4143,1.4118,1.41,1.4072,1.4054,1.4018,1.399,1.3959,1.3942,1.393,1.3928,1.3923,1.3928,1.3936,1.3931,1.3951,1.3928,1.3928,1.3928,1.3928,1.3928,1.4268,1.4254,1.4228,1.4204,1.4185,1.4165,1.4148,1.4129,1.4106,1.4075,1.4064,1.4035,1.4008,1.3966,1.3949,1.3925,1.3924,1.3918,1.3916,1.3915,1.3915,1.3941,1.392,1.392,1.392,1.392,1.392,0,1.4255,1.4238,1.4216,1.4185,1.4166,1.4158,1.4133,1.4116,1.4092,1.4069,1.4046,1.4014,1.3986,1.396,1.3931,1.3918,1.3911,1.391,1.3911,1.3907,1.3919,1.3925,1.3916,1.3916,1.3916,1.3916,1.3916,1.3916,1.4245,1.422,1.4207,1.4172,1.4154,1.4127,1.4113,1.4094,1.4075,1.404,1.4018,1.4001,1.3976,1.3945,1.3919,1.3912,1.3902,1.3902,1.3893,1.3905,1.3906,1.3906,1.3912,1.39,1.39,1.3882,1.3882,1.3882]},{"header":{"parameterUnit":"m.s-1","parameterCategory":1,"la1":30.2991,"la2":30.254,"lo1":-89.0895,"lo2":-89.0444,"dy":0.0017,"dx":0.0017,"nx":28,"ny":28,"refTime":"2025-01-23T09:00:00:Z","depth":0,"parameterNumber":3,"parameterNumberName":"V-component_of_WINDS"},"data":[0,0,0,0,0,0,0,0,0,0,0,0,0,0,0,0,0,0,0,0,0,0,0,0,0,0,0,0,0,0,0,0,0,0,0,0,0,0,0,0,0,0,0,0,0,0,0,0,0,0,0,0,0,0,0,0,0,0,-4.2808,-4.281,0,-4.2989,-4.2991,-4.2993,-4.2942,-4.2939,-4.2935,-4.2931,-4.3114,-4.3122,-4.313,0,0,0,0,0,0,0,0,0,0,0,0,0,-4.2416,-4.2424,-4.2808,-4.281,-4.2813,-4.2989,-4.2991,-4.2994,-4.2943,-4.2938,-4.2934,-4.293,-4.3111,-4.3121,-4.3131,0,0,0,0,0,0,0,0,0,0,0,0,0,-4.2591,-4.2426,-4.2808,-4.2809,-4.281,-4.2988,-4.2991,-4.2994,-4.2944,-4.2938,-4.2933,-4.2928,-4.3108,-4.312,-4.3132,-4.3319,0,0,-4.317,-4.3175,0,0,0,0,0,0,0,0,-4.2581,-4.2605,-4.2806,-4.2809,-4.2811,-4.2938,-4.292,-4.3103,-4.2945,-4.2893,-4.2931,-4.2925,-4.3059,-4.3075,-4.3121,-4.3327,-4.3335,-4.3171,-4.3178,-4.3184,-4.3187,0,0,0,0,0,0,0,-4.2569,-4.2597,-4.288,-4.2809,-4.2812,-4.2799,-4.2818,-4.2954,-4.3005,-4.2897,-4.2894,-4.2916,-4.3059,-4.3109,-4.3125,-4.3338,-4.3171,-4.3182,-4.3189,-4.3194,-4.3707,-4.3713,0,0,0,0,0,0,-4.2555,-4.2587,-4.2874,-4.2885,-4.268,-4.2811,-4.2832,-4.2903,-4.3003,-4.3013,-4.2921,-4.2913,-4.3091,-4.3111,-4.3131,-4.3358,-4.3184,-4.3195,-4.3202,-4.3701,-4.3709,-4.3715,0,0,0,0,0,0,-4.2547,-4.2581,-4.2867,-4.2736,-4.2771,-4.2823,-4.2903,-4.2909,-4.2959,-4.3021,-4.3029,-4.2963,-4.3087,-4.3114,-4.3273,-4.3364,-4.3201,-4.3212,-4.3694,-4.3704,-4.3712,-4.3812,0,0,0,0,0,0,-4.2536,-4.2579,-4.2651,-4.2738,-4.2778,-4.3007,-4.2909,-4.2917,-4.2981,-4.2973,-4.3063,-4.3072,-4.3085,-4.3255,-4.3285,-4.3378,-4.3222,-4.3686,-4.3698,-4.3709,-4.3801,-4.3824,-4.3843,0,0,0,0,0,-4.2522,-4.2671,-4.2655,-4.269,-4.287,-4.3012,-4.3035,-4.3048,-4.2988,-4.3061,-4.3101,-4.3069,-4.3348,-4.3272,-4.3306,-4.3403,-4.368,-4.3695,-4.3708,-4.3792,-4.3819,-4.3843,0,0,0,0,0,0,-4.2593,-4.2682,-4.2665,-4.2847,-4.2922,-4.3003,-4.3095,-4.3076,-4.3169,-4.3158,-4.3168,-4.3189,-4.3353,-4.3393,-4.3306,-4.359,-4.3506,-4.3527,-4.3557,-4.3584,-4.3605,-4.3592,-4.3232,0,0,0,0,0,-4.2629,-4.2738,-4.281,-4.2963,-4.3002,-4.3043,-4.3105,-4.3108,-4.3186,-4.3218,-4.3269,-4.3345,-4.345,-4.3519,-4.3619,-4.3806,-4.3825,-4.389,-4.3911,-4.3928,-4.3947,-4.4049,-4.4079,-4.3761,-4.3761,-4.3761,0,0,-4.2706,-4.2769,-4.2837,-4.2979,-4.3038,-4.315,-4.307,-4.3191,-4.3275,-4.3236,-4.339,-4.3431,-4.3516,-4.3691,-4.377,-4.373,-4.4039,-4.3946,-4.3959,-4.3968,-4.4067,-4.4097,-4.4124,-4.3771,-4.3769,-4.3767,0,0,-4.2904,-4.2962,-4.3097,-4.3158,-4.3248,-4.3274,-4.3306,-4.339,-4.3416,-4.3571,-4.3545,-4.3643,-4.3823,-4.3886,-4.3941,-4.4163,-4.4138,-4.4195,-4.4306,-4.4406,-4.4431,-4.4453,-4.4534,-4.4562,-4.4213,-4.4214,-4.4214,0,-4.2988,-4.3157,-4.3168,-4.3293,-4.3357,-4.3327,-4.3464,-4.3522,-4.364,-4.3684,-4.3637,-4.3864,-4.3919,-4.4108,-4.4163,-4.4208,-4.4245,-4.4186,-4.4427,-4.4449,-4.447,-4.4547,-4.4577,-4.422,-4.4219,-4.4219,-4.4218,0,-4.3256,-4.3374,-4.3471,-4.3588,-4.3662,-4.3792,-4.3822,-4.3896,-4.3893,-4.3923,-4.4082,-4.4147,-4.426,-4.4305,-4.4302,-4.4494,-4.4467,-4.4423,-4.4339,-4.4507,-4.4579,-4.4608,-4.4229,-4.4227,-4.4225,-4.4224,0,0,-4.3505,-4.3626,-4.3662,-4.3714,-4.3812,-4.3903,-4.4031,-4.4143,-4.4206,-4.4288,-4.4397,-4.455,-4.4511,-4.4574,-4.4578,-4.4665,-4.4839,-4.4611,-4.4613,-4.4652,-4.5055,-4.5088,-4.5122,-4.4822,-4.4827,-4.4832,-4.5048,0,-4.3712,-4.3939,-4.3953,-4.4159,-4.4267,-4.4241,-4.4353,-4.4425,-4.4457,-4.4553,-4.4587,-4.4697,-4.4636,-4.4674,-4.476,-4.4799,-4.492,-4.4784,-4.4922,-4.4927,-4.4904,-4.516,-4.5195,-4.5397,-4.5077,-4.5081,-4.5085,0,-4.3984,-4.4077,-4.4294,-4.4377,-4.4423,-4.4524,-4.4628,-4.472,-4.48,-4.4817,-4.4888,-4.488,-4.5011,-4.4922,-4.5102,-4.501,-4.5067,-4.5095,-4.5103,-4.5117,-4.5017,-4.5183,-4.5461,-4.5492,-4.5129,-4.5126,-4.5122,0,-4.4146,-4.4324,-4.4477,-4.4523,-4.4623,-4.4694,-4.4739,-4.4815,-4.4881,-4.4971,-4.5015,-4.5118,-4.5176,-4.5256,-4.5276,-4.5209,-4.5457,-4.5369,-4.5475,-4.5475,-4.5529,-4.5526,-4.5822,-4.5564,-4.5563,-4.5563,-4.5562,0,-4.4377,-4.4511,-4.4551,-4.4645,-4.4795,-4.4808,-4.4956,-4.4995,-4.5063,-4.5164,-4.5147,-4.5242,-4.5262,-4.5361,-4.5377,-4.5525,-4.555,-4.5567,-4.557,-4.557,-4.5568,-4.5609,-4.5596,-4.5571,-4.5569,-4.5568,-4.5566,0,-4.4583,-4.4615,-4.478,-4.4862,-4.4885,-4.4992,-4.5062,-4.5152,-4.5181,-4.531,-4.5341,-4.5387,-4.5503,-4.553,-4.5668,-4.5678,-4.5854,-4.5842,-4.5828,-4.5827,-4.5932,-4.5923,-4.6267,-4.6313,-4.6022,-4.6025,-4.6027,0,-4.4729,-4.4832,-4.4925,-4.4992,-4.5041,-4.5149,-4.5217,-4.5234,-4.5306,-4.5406,-4.5484,-4.5598,-4.569,-4.5877,-4.5922,-4.6027,-4.6019,-4.6132,-4.6034,-4.6031,-4.6022,-4.6017,-4.6028,-4.6151,-4.6154,-4.6157,-4.6159,0,-4.4985,-4.4996,-4.5096,-4.5202,-4.5284,-4.5368,-4.5448,-4.5503,-4.5531,-4.5612,-4.5732,-4.5803,-4.5944,-4.6058,-4.6164,-4.6209,-4.619,-4.6189,-4.6219,-4.6221,-4.6209,-4.6218,-4.588,-4.6181,-4.6179,-4.6177,-4.6176,-4.6175,-4.5167,-4.5258,-4.5338,-4.545,-4.5512,-4.5587,-4.5676,-4.5717,-4.5817,-4.5935,-4.5938,-4.6068,-4.6145,-4.6286,-4.6337,-4.6438,-4.6403,-4.6447,-4.6458,-4.6469,-4.648,-4.6191,-4.6457,-4.6457,-4.6456,-4.6455,-4.6455,0,-4.5424,-4.5475,-4.5577,-4.569,-4.5778,-4.5752,-4.5839,-4.5915,-4.603,-4.6104,-4.6196,-4.6333,-4.6443,-4.6497,-4.6606,-4.6677,-4.667,-4.6705,-4.67,-4.6711,-4.6504,-4.6467,-4.6708,-4.6708,-4.6708,-4.6708,-4.6708,-4.6708,-4.5569,-4.5721,-4.5742,-4.5924,-4.5973,-4.6102,-4.6154,-4.6223,-4.6283,-4.6437,-4.6529,-4.6563,-4.663,-4.6744,-4.6844,-4.6856,-4.6898,-4.6938,-4.6946,-4.6751,-4.6726,-4.6701,-4.6667,-4.6946,-4.6946,-4.7146,-4.7147,-4.7149]}]]